User: anonymous
Location: Caltech
(34.1382°N, 118.1253°W)
Time: 23:23:48
(UTC-07:00)
Language:

Meteor 1-11 Rocket - Orbit

View from above orbital plane
View from above orbital plane
View from above satellite
View from above satellite

Ground track
Ground track

The orbit data is extracted from the following two-line orbital elements,

1 05918U 72022B   14293.84446612  .00000127  00000-0  68954-4 0  2810
2 05918 081.2384 184.5093 0059057 172.0425 258.4134 14.05725715181664
Epoch (UTC): 20 October 2014 20:16:01
Eccentricity: 0.0059057
inclination: 81.2384°
perigee height: 831 km
apogee height: 917 km
right ascension of ascending node: 184.5093°
argument of perigee: 172.0425°
revolutions per day: 14.05725715
mean anomaly at epoch: 258.4134°
orbit number at epoch: 18166

The dashed part of the orbit path shows where the satellite is in the earth's shadow,  

DLR